Location: ????????
(55.5667°N, 37.5833°E)
Time: 10:58:25
(UTC+00:00)

Cosmos 2219 Rocket - Pass Details

Date: 14 April 2026
Orbit: 827 x 845 km, 71.0° (Epoch: 10 May)

Event Time Altitude Azimuth Distance (km) Brightness Sun altitude
Rises 23:44:11 0° 322° (NW) 3,387 5.6 -19.0°
Reaches altitude 10° 23:46:53 10° 333° (NNW) 2,453 4.9 -18.8°
Maximum altitude 23:51:56 33° 36° (NE) 1,384 4.0 -18.3°
Drops below altitude 10° 23:56:59 10° 100° (E) 2,455 5.0 -17.9°
Sets 23:59:41 0° 110° (ESE) 3,390 5.6 -17.7°
